070429 A33  0.2+  0.1+    070517 355  0.2-  0.1-    070714 046  0.6+  0.8-

070429 213  0.1+  0.3-    070517 355  0.2-  0.3-    070714 046  0.5+  0.6-

070429 213  0.0   0.2-    070517 355  0.2-  0.3-    070714 046  0.3+  0.3-

070429 213  0.4+  0.3-    070517 379  0.4+  0.5+    070714 046  0.5+  0.8-

070429 A33  0.5+  0.3-    070517 379  0.0   0.3+    070714 046  0.4+  0.7-

070430 585 (5.2+  9.8-)   070517 379  0.1+  0.3+    070714 046  0.3+  0.4-

070430 585 (1.3+  3.3-)   070517 379  0.3-  0.1+    070714 046  0.5+  0.1+

070430 585 (1.3+  2.0-)   070517 379  0.4-  0.4+    070714 213  0.5+  0.5-

070430 585  0.1-  0.0     070517 379  0.3-  0.4+    070714 213  0.6+  0.7-

070430 585  0.5+  0.3+    070517 379  0.1+  0.0     070714 213  0.5+  0.7-

070430 585  0.3+  0.2+    070517 361  1.2-  0.3-    070714 232  1.0+  0.1-

070430 585  0.0   0.6+    070517 361  0.6-  0.6-    070714 232  1.2+  0.1+

070430 585  0.4+  0.2+    070517 361  0.7-  1.2-    070714 232  1.8+  0.3+

070430 585  0.1-  0.9+    070517 361  0.6-  1.1+    070714 J53 (2.1+  0.1-)

070430 850  0.2-  0.5+    070517 361  0.4-  0.0     070714 J53  1.4+  0.7-

070430 850  0.1+  0.1-    070517 361  0.6-  0.4-    070715 H45  0.8+  0.3-

070430 850  0.2-  0.6+    070517 361  1.6-  0.6-    070715 H45  0.9+  0.1-

070430 850  0.0   0.1+    070517 361  1.1-  0.7-    070715 H45  0.7+  0.3-

070430 349  0.0   0.3-    070517 560  0.9+  0.7-    070715 H45  1.1+  0.3-

070430 349  0.0   0.1-    070517 560  0.4-  1.0+    070715 H45  0.4+  0.6-

070430 349  0.2-  0.1-    070517 560  0.8-  0.8+    070715 204  0.0   0.2-

070430 349  0.1-  0.2-    070518 762  0.1+  0.0     070716 204  0.4+  0.3-

070430 461  0.2+  0.7+    070518 762  0.2+  0.1-    070717 A10  0.0   0.9-

070430 461  0.1-  0.5+    070518 762  0.0   0.0     070718 A32  0.6+  0.4-

070501 461  0.0   0.4+    070518 762  0.6+  0.7-    070718 A32  0.5-  0.5+

070501 461  0.1-  0.4+    070518 A97  0.5-  0.3+    070725 762  1.0+  0.2+

070501 461  0.2+  0.2+    070518 A97  0.6-  0.2-    070725 762 (2.6+  1.3-)

070501 510  0.7-  0.6+    070518 J79  0.2+  0.0     070725 762  1.0+  1.4+

070501 510  0.2-  0.2+    070518 J79  0.2+  0.5-    070725 762 (2.3+  0.6+)

070501 510  0.7-  0.2+    070518 J79  0.0   0.3+    070728 349 (4.3+  0.3-)

070501 A33  0.1+  0.6-    070518 A97  0.0   0.0     070728 349 (3.2+  0.5+)

070501 510  0.6+  0.5+    070518 213  0.8-  0.2+    070731 204  0.6+  0.3-

070501 510  0.5+  0.1-    070518 213  0.0   0.2+    070801 204  0.5+  0.4-

070501 510  0.7+  0.2-    070518 213  0.2+  0.4+    070804 B42  0.9+  0.2+

070502 127  0.5+  0.2+    070518 A97  0.5-  0.2-    070813 442  1.5+  1.6-

070502 127  0.4+  0.2+    070518 445  0.6-  0.1-    070813 442 (2.1+  0.7-)

070502 127  0.4+  0.3+    070518 445  0.7+  0.2-    070813 442 (1.1+  2.1-)

070502 127  0.6+  0.0     070518 445  0.3+  0.2-    070814 442  1.9+  0.8+

070502 461  0.1+  0.6+    070518 A06  0.2+  0.6-    070816 A32 (3.1+  1.2-)

070502 585  1.0+  1.1-    070518 J78  0.1+  0.1-    070816 A32 (2.5+  0.7-)

070502 461  0.2-  0.5+    070518 J78  0.0   0.1-    070817 A32 (2.3+  0.4-)

070502 461  0.2+  0.8+    070518 J78  0.3+  0.1-    070823 A32  1.3+  0.3-

070502 461  0.1-  0.8+    070518 A06  0.7+  0.5-    070823 A32  1.3+  0.9-

070502 461  0.2+  0.6+    070518 A39  0.4-  0.5+

070502 461  0.1+  0.6+    070518 A39  0.4-  0.2+

NAKANO

         **** Don't distribute anyone except personal use only ****

                (C) Copyright 2008 OAA/ComputingSection

write mail from CFAD0::NAKANO on 2008-09-07 23:13:57(JST).





    C/2007 E2 (Lovejoy)

Epoch 2007 Apr. 10.0 TT = JDT 2454200.5  

T 2007 Mar. 27.50579 TT                                 Nakano

q   1.0929632            (2000.0)            P               Q

z  +0.0005600      Peri.  340.53880     -0.54777713     -0.27975759

 +/-0.0000221      Node   232.43309     -0.57296625     -0.56128811

e   0.9993879      Incl.   95.88507     -0.60963095     +0.77890394

From 1517 observations 2007 Mar. 18-Aug. 1, mean residual 0".59.

   (1/a)org.= +0.000902, (1/a)fut.= +0.001101 (+/-0.000022), Q= 6.



NAKANO

         **** Don't distribute anyone except personal use only ****

                (C) Copyright 2007 OAA/ComputingSection

write mail from CFAD0::NAKANO on 2007-08-13 06:05:09(JST).

 

    C/2007 E2 (Lovejoy)

Epoch 2007 Apr. 10.0 TT = JDT 2454200.5  

T 2007 Mar. 27.50913 TT                                 Nakano

q   1.0929819            (2000.0)            P               Q

z  +0.0004113      Peri.  340.54239     -0.54777371     -0.27974137

 +/-0.0000278      Node   232.43408     -0.57301595     -0.56124019

e   0.9995505      Incl.   95.88674     -0.60958730     +0.77894429

From 1437 observations 2007 Mar. 18-July 5, mean residual 0".59.

   (1/a)org.= +0.000754, (1/a)fut.= +0.000952 (+/-0.000028), Q= 6.



NAKANO

         **** Don't distribute anyone except personal use only ****

                (C) Copyright 2007 OAA/ComputingSection

write mail from CFAD0::NAKANO on 2007-07-09 03:50:16(JST).

 

    C/2007 E2 (Lovejoy)

Epoch 2007 Apr. 10.0 TT = JDT 2454200.5  

T 2007 Mar. 27.51241 TT                                 Nakano

q   1.0930003            (2000.0)            P               Q

z  +0.0002696      Peri.  340.54594     -0.54777122     -0.27972458

 +/-0.0000341      Node   232.43501     -0.57306441     -0.56119340

e   0.9997053      Incl.   95.88832     -0.60954399     +0.77898403

From 1209 observations 2007 Mar. 18-May 30, mean residual 0".56.

   (1/a)org.= +0.000612, (1/a)fut.= +0.000810 (+/-0.000034), Q= 5.



NAKANO

         **** Don't distribute anyone except personal use only ****

                (C) Copyright 2007 OAA/ComputingSection

write mail from CFAD0::NAKANO on 2007-06-06 06:36:40(JST).

 





◎C/2007 E2の軌道と予報位置



  本日,YCを発送するが,以下の3項目が入らなかった.5月末に下記原稿を

最新のものに書き直して,YCを発行する予定である.



ラブジョイ彗星  C/2007 E2 (Lovejoy)

    彗星は,4月には7等級まで明るくなった.スペインのゴンザレス(J. Gonzales, 

Leon)による彗星の眼視全光度は,4月12日に7.7等,13日に7.8等5月5日に7.8

等,8日に8.3等であった.星の広場HAL 320によると,飛騨の大下信雄氏(N. 

Ohshita, Hida)は,4月14日の彗星の眼視全光度を8.6等と観測している.

    山本速報2551に続く,その後のCCD全光度は,4月13日に8.4等(筆者;洲本

),14日に9.4等(門田健一;上尾),8.5等(浅見敦夫;秦野),19日に8.4等(

著者),4月21日と25日に9.1等(門田),26日に8.5等(著者),27日に9.3等(

門田),28日に8.3等(著者),30日に9.8等,5月3日に10.1等(門田),10日に

9.2等(著者),13日に10.4等(門田),14日に11.0等,15日に10.8等,17日に

11.2等(浅見),11.7等,19日に10.9等,20日に12.0等(著者)と観測された(

cf. YC 2548, YC 2551).

    OAA計算課では,2007年3月18日から5月21日までに行なわれた968個の観測

から次の改良軌道を決定した.平均残差は0".57.なお,6月1日までの位置予報

がYC 2551にある.



          Epoch = 2007 Apr. 10.0 TT  。

T = 2007 Mar. 27.5125 TT    ω = 340.5461                 (1/a)org.= +0.000610

e =   0.999707              Ω = 232.4350    (2000.0)     (1/a)fut.= +0.000809

q =   1.093001 AU           i =  95.8883                            ( Q = 5 )



2007/        α  (2000) δ      △      r    Daily motion  Elong. Phase    m1 

 21h JST    h  m       。  ,        AU      AU      ,     。     。      。      等

June  1   14 13.58  +64 33.9    1.142   1.516    28.8/264    89.2   42.0   11.6

      2   14 09.14  +64 30.5    1.166   1.526    27.4/262    88.6   41.6   11.7

      3   14 04.95  +64 26.3    1.191   1.537    26.0/260    88.0   41.3   11.7

      4   14 01.00  +64 21.5    1.215   1.547    24.8/258    87.4   40.9   11.8

      5   13 57.29  +64 16.0    1.240   1.558    23.6/256    86.8   40.6   11.9

      6   13 53.80  +64 09.9    1.264   1.569    22.4/253    86.3   40.2   12.0

      7   13 50.53  +64 03.4    1.288   1.579    21.4/251    85.7   39.8   12.0

      8   13 47.45  +63 56.4    1.313   1.590    20.4/249    85.2   39.5   12.1

      9   13 44.57  +63 49.1    1.337   1.601    19.4/247    84.6   39.1   12.2

     10   13 41.88  +63 41.5    1.361   1.612    18.6/245    84.1   38.8   12.2

     11   13 39.36  +63 33.6    1.385   1.623    17.7/243    83.5   38.4   12.3

     12   13 37.01  +63 25.5    1.409   1.634    16.9/241    83.0   38.1   12.4

     13   13 34.81  +63 17.2    1.433   1.645    16.2/239    82.5   37.8   12.4

     14   13 32.77  +63 08.7    1.457   1.656    15.5/236    82.0   37.4   12.5

     15   13 30.88  +63 00.0    1.480   1.667    14.9/234    81.5   37.1   12.6

     16   13 29.12  +62 51.3    1.504   1.678    14.2/232    81.0   36.7   12.6

     17   13 27.49  +62 42.5    1.527   1.689    13.7/230    80.5   36.4   12.7

     18   13 25.99  +62 33.6    1.551   1.700    13.1/227    80.0   36.1   12.8

     19   13 24.60  +62 24.6    1.574   1.711    12.6/225    79.5   35.7   12.8

     20   13 23.33  +62 15.6    1.597   1.722    12.1/222    79.0   35.4   12.9

     21   13 22.17  +62 06.6    1.620   1.734    11.7/220    78.6   35.1   12.9

     22   13 21.11  +61 57.6    1.643   1.745    11.3/217    78.1   34.7   13.0

     23   13 20.14  +61 48.6    1.666   1.756    10.9/215    77.6   34.4   13.1

     24   13 19.27  +61 39.6    1.689   1.767    10.6/212    77.2   34.1   13.1

     25   13 18.48  +61 30.6    1.711   1.779    10.2/209    76.7   33.8   13.2

     26   13 17.78  +61 21.7    1.734   1.790    10.0/207    76.3   33.5   13.2

     27   13 17.17  +61 12.8    1.756   1.801     9.7/204    75.9   33.2   13.3

     28   13 16.62  +61 04.0    1.778   1.813     9.4/201    75.4   32.9   13.3

     29   13 16.15  +60 55.2    1.800   1.824     9.2/198    75.0   32.6   13.4

     30   13 15.76  +60 46.4    1.822   1.835     9.0/196    74.6   32.3   13.4

July  1   13 15.42  +60 37.7    1.844   1.847     8.9/193    74.2   32.0   13.5

                    m1 =  9.5 + 5 log △ + 10.0 log r





軌道と残差:



    C/2007 E2 (Lovejoy)

Epoch 2007 Apr. 10.0 TT = JDT 2454200.5  

T 2007 Mar. 27.51251 TT                                 Nakano

q   1.0930009            (2000.0)            P               Q

z  +0.0002681      Peri.  340.54606     -0.54777187     -0.27972320

 +/-0.0000378      Node   232.43502     -0.57306553     -0.56119238

e   0.9997070      Incl.   95.88830     -0.60954235     +0.77898527

From 968 observations 2007 Mar. 18-May 21, mean residual 0".57.

